AZU2740 SBPA-SBCF

Flight info

Callsign AZU2740
Flight time 1h 51m
Altitude 39000
Route ANLER UM540 KOXAG DCT ILKOK UZ23 KIBAP
Aircraft A20N/M-SDE2E3FGHIRWXY/LB1

Departure

Time 2026-05-08 16:14
Airport Porto Alegre-Salgado Filho International Airport (SBPA)

Arrival

Time 2026-05-08 18:06
Airport Tancredo Neves International Airport (SBCF)
Time Latitude Longitude Altitude Speed Heading
2026-05-08 15:43 -29.99135 -51.17436 20 ft 0 kts
2026-05-08 16:05 -29.99144 -51.17437 20 ft 2 kts
2026-05-08 16:05 -29.99158 -51.17437 22 ft 2 kts
2026-05-08 16:05 -29.99171 -51.17437 21 ft 2 kts
2026-05-08 16:05 -29.99183 -51.17443 21 ft 2 kts 95°
2026-05-08 16:06 -29.99182 -51.17459 24 ft 2 kts 86°
2026-05-08 16:06 -29.99182 -51.17461 23 ft 0 kts 86°
2026-05-08 16:06 -29.99182 -51.17460 24 ft 1 kts 86°
2026-05-08 16:07 -29.99183 -51.17427 22 ft 6 kts 102°
2026-05-08 16:07 -29.99218 -51.17392 20 ft 8 kts 165°
2026-05-08 16:07 -29.99264 -51.17369 20 ft 7 kts 125°
2026-05-08 16:07 -29.99270 -51.17308 20 ft 8 kts 92°
2026-05-08 16:08 -29.99272 -51.17221 20 ft 15 kts 90°
2026-05-08 16:08 -29.99273 -51.17087 20 ft 17 kts 91°
2026-05-08 16:08 -29.99276 -51.16957 20 ft 16 kts 91°
2026-05-08 16:08 -29.99278 -51.16836 20 ft 14 kts 91°
2026-05-08 16:09 -29.99280 -51.16725 20 ft 13 kts 92°
2026-05-08 16:09 -29.99283 -51.16620 20 ft 14 kts 91°
2026-05-08 16:09 -29.99284 -51.16503 20 ft 15 kts 91°
2026-05-08 16:09 -29.99287 -51.16388 20 ft 15 kts 91°
2026-05-08 16:10 -29.99291 -51.16269 21 ft 13 kts 102°
2026-05-08 16:10 -29.99361 -51.16229 20 ft 11 kts 179°
2026-05-08 16:10 -29.99390 -51.16229 20 ft 0 kts 180°
2026-05-08 16:12 -29.99391 -51.16229 20 ft 1 kts 180°
2026-05-08 16:12 -29.99446 -51.16227 20 ft 13 kts 169°
2026-05-08 16:12 -29.99482 -51.16147 20 ft 11 kts 94°
2026-05-08 16:12 -29.99483 -51.16055 20 ft 13 kts 85°
2026-05-08 16:13 -29.99458 -51.15968 20 ft 7 kts 116°
2026-05-08 16:13 -29.99482 -51.15981 20 ft 5 kts 260°
2026-05-08 16:13 -29.99482 -51.16137 20 ft 48 kts 271°
2026-05-08 16:13 -29.99470 -51.16766 20 ft 105 kts 271°
2026-05-08 16:14 -29.99451 -51.17782 75 ft 142 kts 272°
2026-05-08 16:14 -29.99435 -51.18889 620 ft 140 kts 272°
2026-05-08 16:14 -29.99408 -51.20097 875 ft 162 kts 274°
2026-05-08 16:14 -29.99376 -51.21480 1137 ft 184 kts 274°
2026-05-08 16:15 -29.99325 -51.23058 1461 ft 208 kts 278°
2026-05-08 16:15 -29.98755 -51.24644 1921 ft 223 kts 311°
2026-05-08 16:15 -29.97435 -51.25594 2716 ft 232 kts 343°
2026-05-08 16:15 -29.95801 -51.25437 3480 ft 249 kts 19°
2026-05-08 16:16 -29.94361 -51.24224 4203 ft 263 kts 35°
2026-05-08 16:16 -29.93038 -51.22722 4918 ft 270 kts 38°
2026-05-08 16:16 -29.91745 -51.21130 5671 ft 273 kts 39°
2026-05-08 16:16 -29.90454 -51.19514 6451 ft 275 kts 39°
2026-05-08 16:17 -29.89149 -51.17895 7157 ft 277 kts 38°
2026-05-08 16:17 -29.88271 -51.16825 7614 ft 279 kts 38°
2026-05-08 16:17 -29.86458 -51.14648 8504 ft 284 kts 38°
2026-05-08 16:17 -29.85071 -51.13000 9171 ft 289 kts 38°
2026-05-08 16:18 -29.83658 -51.11326 9828 ft 293 kts 38°
2026-05-08 16:18 -29.82228 -51.09648 10418 ft 295 kts 37°
2026-05-08 16:18 -29.80758 -51.07981 11040 ft 298 kts 36°
2026-05-08 16:18 -29.79261 -51.06321 11644 ft 300 kts 35°
2026-05-08 16:19 -29.77744 -51.04649 12253 ft 303 kts 34°
2026-05-08 16:19 -29.76221 -51.02967 12855 ft 306 kts 34°
2026-05-08 16:19 -29.74683 -51.01263 13447 ft 308 kts 34°
2026-05-08 16:19 -29.73134 -50.99541 13979 ft 311 kts 34°
2026-05-08 16:20 -29.71570 -50.97802 14493 ft 314 kts 34°
2026-05-08 16:20 -29.69995 -50.96047 14995 ft 316 kts 33°
2026-05-08 16:20 -29.68428 -50.94303 15499 ft 319 kts 33°
2026-05-08 16:20 -29.66822 -50.92517 16003 ft 321 kts 33°
2026-05-08 16:21 -29.65246 -50.90767 16509 ft 323 kts 33°
2026-05-08 16:21 -29.63618 -50.88960 16992 ft 326 kts 33°
2026-05-08 16:21 -29.61976 -50.87143 17359 ft 334 kts 33°
2026-05-08 16:21 -29.60256 -50.85256 17492 ft 350 kts 33°
2026-05-08 16:22 -29.58454 -50.83283 17620 ft 367 kts 33°
2026-05-08 16:22 -29.56561 -50.81200 17856 ft 384 kts 34°
2026-05-08 16:22 -29.54620 -50.79046 18419 ft 391 kts 34°
2026-05-08 16:22 -29.52693 -50.76889 19052 ft 394 kts 34°
2026-05-08 16:23 -29.50721 -50.74679 19730 ft 397 kts 34°
2026-05-08 16:23 -29.48743 -50.72468 20419 ft 399 kts 34°
2026-05-08 16:23 -29.46743 -50.70247 21102 ft 401 kts 34°
2026-05-08 16:23 -29.44724 -50.68018 21773 ft 404 kts 34°
2026-05-08 16:24 -29.42692 -50.65781 22471 ft 406 kts 34°
2026-05-08 16:24 -29.40647 -50.63529 23125 ft 408 kts 34°
2026-05-08 16:24 -29.38595 -50.61268 23734 ft 411 kts 34°
2026-05-08 16:24 -29.36528 -50.58993 24273 ft 413 kts 34°
2026-05-08 16:25 -29.34448 -50.56703 24794 ft 416 kts 34°
2026-05-08 16:25 -29.32355 -50.54401 25297 ft 419 kts 34°
2026-05-08 16:25 -29.30241 -50.52076 25794 ft 422 kts 34°
2026-05-08 16:25 -29.28122 -50.49746 26296 ft 425 kts 34°
2026-05-08 16:26 -29.25978 -50.47393 26717 ft 428 kts 34°
2026-05-08 16:26 -29.23818 -50.45025 27180 ft 432 kts 34°
2026-05-08 16:26 -29.21642 -50.42638 27660 ft 435 kts 34°
2026-05-08 16:26 -29.19454 -50.40235 28099 ft 438 kts 34°
2026-05-08 16:27 -29.17254 -50.37813 28593 ft 440 kts 34°
2026-05-08 16:27 -29.15043 -50.35379 29066 ft 442 kts 34°
2026-05-08 16:27 -29.12817 -50.32936 29535 ft 445 kts 34°
2026-05-08 16:27 -29.10573 -50.30482 29982 ft 447 kts 34°
2026-05-08 16:28 -29.08323 -50.28025 30359 ft 449 kts 34°
2026-05-08 16:28 -29.06057 -50.25552 30736 ft 451 kts 34°
2026-05-08 16:28 -29.03782 -50.23063 31122 ft 453 kts 34°
2026-05-08 16:28 -29.01503 -50.20569 31522 ft 454 kts 34°
2026-05-08 16:29 -28.99229 -50.18081 32031 ft 451 kts 34°
2026-05-08 16:29 -28.96975 -50.15619 32636 ft 447 kts 34°
2026-05-08 16:29 -28.94735 -50.13174 33221 ft 444 kts 33°
2026-05-08 16:29 -28.92509 -50.10747 33791 ft 441 kts 33°
2026-05-08 16:30 -28.90296 -50.08336 34265 ft 439 kts 33°
2026-05-08 16:30 -28.88085 -50.05931 34672 ft 439 kts 33°
2026-05-08 16:30 -28.85876 -50.03532 35054 ft 438 kts 33°
2026-05-08 16:30 -28.83665 -50.01135 35400 ft 438 kts 33°
2026-05-08 16:31 -28.81459 -49.98742 35758 ft 437 kts 33°
2026-05-08 16:31 -28.79263 -49.96355 36085 ft 437 kts 33°
2026-05-08 16:31 -28.77065 -49.93965 36431 ft 436 kts 33°
2026-05-08 16:31 -28.74873 -49.91583 36792 ft 435 kts 33°
2026-05-08 16:32 -28.72683 -49.89209 37145 ft 434 kts 33°
2026-05-08 16:32 -28.70497 -49.86845 37447 ft 434 kts 32°
2026-05-08 16:32 -28.68222 -49.84660 37781 ft 422 kts 26°
2026-05-08 16:32 -28.65861 -49.82672 38109 ft 422 kts 26°
2026-05-08 16:33 -28.63503 -49.80689 38408 ft 421 kts 25°
2026-05-08 16:33 -28.61147 -49.78711 38585 ft 422 kts 25°
2026-05-08 16:33 -28.58783 -49.76731 38757 ft 422 kts 25°
2026-05-08 16:33 -28.56413 -49.74738 38826 ft 423 kts 25°
2026-05-08 16:34 -28.51727 -49.70784 38853 ft 421 kts 25°
2026-05-08 16:34 -28.47787 -49.67470 38850 ft 420 kts 25°
2026-05-08 16:35 -28.42322 -49.62887 38852 ft 420 kts 25°
2026-05-08 16:35 -28.38384 -49.59588 38841 ft 420 kts 25°
2026-05-08 16:36 -28.33675 -49.55644 38859 ft 420 kts 25°
2026-05-08 16:36 -28.28211 -49.51064 38824 ft 420 kts 25°
2026-05-08 16:37 -28.24268 -49.47767 38805 ft 420 kts 25°
2026-05-08 16:37 -28.19558 -49.43840 38825 ft 421 kts 26°
2026-05-08 16:38 -28.14832 -49.39907 38832 ft 421 kts 25°
2026-05-08 16:38 -28.10106 -49.35975 38852 ft 422 kts 25°
2026-05-08 16:39 -28.05411 -49.32053 38860 ft 423 kts 26°
2026-05-08 16:39 -28.00714 -49.28034 38854 ft 423 kts 26°
2026-05-08 16:40 -27.96029 -49.24026 38864 ft 422 kts 26°
2026-05-08 16:40 -27.91343 -49.20041 38835 ft 421 kts 26°
2026-05-08 16:41 -27.86621 -49.16059 38834 ft 420 kts 26°
2026-05-08 16:42 -27.79493 -49.10337 38855 ft 419 kts 25°
2026-05-08 16:42 -27.74725 -49.06557 38840 ft 419 kts 24°
2026-05-08 16:43 -27.69952 -49.02742 38843 ft 421 kts 24°
2026-05-08 16:43 -27.65234 -48.98884 38846 ft 423 kts 25°
2026-05-08 16:44 -27.60492 -48.94952 38853 ft 423 kts 25°
2026-05-08 16:44 -27.55742 -48.91032 38832 ft 423 kts 25°
2026-05-08 16:45 -27.50979 -48.87116 38838 ft 424 kts 25°
2026-05-08 16:45 -27.46214 -48.83207 38832 ft 423 kts 25°
2026-05-08 16:46 -27.41451 -48.79301 38849 ft 425 kts 25°
2026-05-08 16:46 -27.36668 -48.75383 38858 ft 426 kts 25°
2026-05-08 16:47 -27.31882 -48.71471 38860 ft 425 kts 25°
2026-05-08 16:47 -27.27099 -48.67564 38839 ft 425 kts 25°
2026-05-08 16:48 -27.22319 -48.63612 38826 ft 428 kts 26°
2026-05-08 16:48 -27.17547 -48.59579 38829 ft 430 kts 26°
2026-05-08 16:49 -27.12718 -48.55608 38834 ft 431 kts 25°
2026-05-08 16:49 -27.07845 -48.51687 38843 ft 431 kts 25°
2026-05-08 16:50 -27.02960 -48.47773 38851 ft 432 kts 25°
2026-05-08 16:50 -26.98101 -48.43864 38857 ft 433 kts 25°
2026-05-08 16:51 -26.93172 -48.39892 38826 ft 434 kts 25°
2026-05-08 16:51 -26.88282 -48.35954 38831 ft 437 kts 25°
2026-05-08 16:52 -26.83329 -48.31976 38840 ft 439 kts 25°
2026-05-08 16:52 -26.78357 -48.27985 38841 ft 440 kts 25°
2026-05-08 16:53 -26.70888 -48.21982 38853 ft 441 kts 26°
2026-05-08 16:53 -26.65887 -48.17963 38839 ft 444 kts 26°
2026-05-08 16:54 -26.60867 -48.13919 38837 ft 446 kts 26°
2026-05-08 16:54 -26.55830 -48.09868 38838 ft 447 kts 26°
2026-05-08 16:55 -26.50776 -48.05805 38843 ft 448 kts 26°
2026-05-08 16:55 -26.45721 -48.01754 38848 ft 448 kts 26°
2026-05-08 16:56 -26.40643 -47.97693 38836 ft 450 kts 25°
2026-05-08 16:56 -26.35543 -47.93615 38829 ft 452 kts 26°
2026-05-08 16:57 -26.30423 -47.89520 38831 ft 452 kts 26°
2026-05-08 16:57 -26.25310 -47.85441 38867 ft 452 kts 26°
2026-05-08 16:58 -26.20197 -47.81360 38874 ft 451 kts 26°
2026-05-08 16:58 -26.15096 -47.77296 38866 ft 451 kts 26°
2026-05-08 16:59 -26.09981 -47.73223 38857 ft 452 kts 26°
2026-05-08 16:59 -26.04864 -47.69146 38856 ft 453 kts 26°
2026-05-08 17:00 -25.99734 -47.65077 38843 ft 453 kts 26°
2026-05-08 17:00 -25.94595 -47.61004 38842 ft 454 kts 26°
2026-05-08 17:01 -25.89490 -47.56964 38831 ft 454 kts 27°
2026-05-08 17:01 -25.84339 -47.52892 38852 ft 454 kts 26°
2026-05-08 17:02 -25.79191 -47.48827 38863 ft 454 kts 26°
2026-05-08 17:02 -25.74041 -47.44759 38866 ft 455 kts 26°
2026-05-08 17:03 -25.68892 -47.40692 38868 ft 454 kts 26°
2026-05-08 17:03 -25.63740 -47.36632 38855 ft 453 kts 27°
2026-05-08 17:04 -25.58602 -47.32590 38877 ft 452 kts 27°
2026-05-08 17:04 -25.53479 -47.28554 38884 ft 452 kts 27°
2026-05-08 17:05 -25.48355 -47.24528 38886 ft 451 kts 26°
2026-05-08 17:05 -25.43233 -47.20511 38883 ft 451 kts 26°
2026-05-08 17:06 -25.38105 -47.16504 38862 ft 451 kts 27°
2026-05-08 17:06 -25.32985 -47.12500 38857 ft 451 kts 27°
2026-05-08 17:07 -25.27869 -47.08490 38864 ft 451 kts 27°
2026-05-08 17:07 -25.22743 -47.04479 38869 ft 451 kts 27°
2026-05-08 17:08 -25.17618 -47.00482 38874 ft 451 kts 27°
2026-05-08 17:08 -25.12235 -46.97170 38869 ft 434 kts 11°
2026-05-08 17:09 -25.06519 -46.95151 38841 ft 432 kts
2026-05-08 17:09 -25.00780 -46.93157 38846 ft 433 kts
2026-05-08 17:10 -24.95035 -46.91145 38858 ft 434 kts
2026-05-08 17:10 -24.89275 -46.89125 38863 ft 434 kts
2026-05-08 17:11 -24.83514 -46.87103 38869 ft 435 kts
2026-05-08 17:11 -24.77792 -46.85096 38867 ft 435 kts
2026-05-08 17:12 -24.71990 -46.83068 38875 ft 435 kts
2026-05-08 17:12 -24.66259 -46.81071 38878 ft 435 kts
2026-05-08 17:13 -24.60484 -46.79059 38885 ft 435 kts
2026-05-08 17:13 -24.54719 -46.77048 38885 ft 435 kts
2026-05-08 17:14 -24.48944 -46.75034 38884 ft 435 kts
2026-05-08 17:14 -24.43169 -46.73031 38890 ft 436 kts
2026-05-08 17:15 -24.37387 -46.71024 38890 ft 436 kts
2026-05-08 17:15 -24.31600 -46.69013 38901 ft 436 kts
2026-05-08 17:16 -24.25814 -46.67010 38889 ft 436 kts
2026-05-08 17:16 -24.20018 -46.65004 38900 ft 437 kts
2026-05-08 17:17 -24.14213 -46.62989 38906 ft 438 kts
2026-05-08 17:17 -24.08399 -46.60981 38912 ft 439 kts
2026-05-08 17:18 -24.02576 -46.58966 38896 ft 439 kts
2026-05-08 17:18 -23.96755 -46.56951 38899 ft 439 kts
2026-05-08 17:19 -23.90917 -46.54946 38878 ft 440 kts 10°
2026-05-08 17:19 -23.85075 -46.52943 38984 ft 440 kts 10°
2026-05-08 17:20 -23.79224 -46.50933 39003 ft 441 kts 10°
2026-05-08 17:20 -23.73419 -46.48933 39011 ft 441 kts 10°
2026-05-08 17:21 -23.67560 -46.46919 39022 ft 441 kts 10°
2026-05-08 17:21 -23.61702 -46.44906 39025 ft 442 kts 10°
2026-05-08 17:22 -23.55834 -46.42926 39010 ft 440 kts
2026-05-08 17:22 -23.49937 -46.41186 39013 ft 439 kts
2026-05-08 17:23 -23.45021 -46.39811 39013 ft 438 kts
2026-05-08 17:23 -23.39115 -46.38144 39016 ft 438 kts
2026-05-08 17:24 -23.33190 -46.36675 39006 ft 436 kts
2026-05-08 17:24 -23.27245 -46.35323 39010 ft 437 kts
2026-05-08 17:25 -23.21292 -46.33946 39010 ft 437 kts
2026-05-08 17:25 -23.15343 -46.32531 39014 ft 438 kts
2026-05-08 17:26 -23.09377 -46.31099 39019 ft 439 kts
2026-05-08 17:26 -23.03402 -46.29676 39030 ft 440 kts
2026-05-08 17:27 -22.97417 -46.28257 39025 ft 440 kts
2026-05-08 17:27 -22.91433 -46.26835 39025 ft 441 kts
2026-05-08 17:28 -22.85430 -46.25414 39024 ft 441 kts
2026-05-08 17:28 -22.79422 -46.23999 39043 ft 443 kts
2026-05-08 17:29 -22.73601 -46.21583 39044 ft 459 kts 26°
2026-05-08 17:29 -22.68368 -46.17527 39036 ft 464 kts 31°
2026-05-08 17:30 -22.63262 -46.13199 39034 ft 468 kts 34°
2026-05-08 17:30 -22.58263 -46.08657 39042 ft 470 kts 35°
2026-05-08 17:31 -22.53250 -46.04124 39055 ft 470 kts 34°
2026-05-08 17:31 -22.48202 -45.99656 39052 ft 470 kts 34°
2026-05-08 17:32 -22.43128 -45.95212 39048 ft 470 kts 34°
2026-05-08 17:32 -22.38050 -45.90761 39047 ft 470 kts 34°
2026-05-08 17:33 -22.33013 -45.86334 39049 ft 470 kts 34°
2026-05-08 17:33 -22.27942 -45.81881 39052 ft 470 kts 34°
2026-05-08 17:34 -22.22820 -45.77419 39046 ft 470 kts 34°
2026-05-08 17:34 -22.17739 -45.73038 39049 ft 470 kts 34°
2026-05-08 17:35 -22.12631 -45.68645 39051 ft 470 kts 34°
2026-05-08 17:35 -22.07528 -45.64251 39050 ft 470 kts 34°
2026-05-08 17:36 -22.02429 -45.59848 39039 ft 470 kts 34°
2026-05-08 17:36 -21.97322 -45.55446 39031 ft 470 kts 34°
2026-05-08 17:37 -21.92209 -45.51049 39040 ft 470 kts 34°
2026-05-08 17:37 -21.87087 -45.46647 39044 ft 471 kts 34°
2026-05-08 17:38 -21.81962 -45.42260 39040 ft 471 kts 34°
2026-05-08 17:38 -21.76838 -45.37868 39040 ft 471 kts 34°
2026-05-08 17:39 -21.71722 -45.33476 39039 ft 471 kts 35°
2026-05-08 17:39 -21.66594 -45.29085 39030 ft 471 kts 35°
2026-05-08 17:40 -21.61460 -45.24700 39033 ft 472 kts 35°
2026-05-08 17:40 -21.56359 -45.20345 39031 ft 472 kts 35°
2026-05-08 17:41 -21.51222 -45.15958 39034 ft 472 kts 35°
2026-05-08 17:41 -21.46074 -45.11572 39037 ft 472 kts 35°
2026-05-08 17:42 -21.40929 -45.07175 39036 ft 472 kts 35°
2026-05-08 17:42 -21.35786 -45.02796 39030 ft 472 kts 35°
2026-05-08 17:43 -21.30626 -44.98419 39030 ft 473 kts 35°
2026-05-08 17:43 -21.25473 -44.94042 39031 ft 473 kts 35°
2026-05-08 17:44 -21.20321 -44.89663 39031 ft 472 kts 35°
2026-05-08 17:44 -21.15178 -44.85287 39022 ft 472 kts 35°
2026-05-08 17:45 -21.10021 -44.80917 39030 ft 472 kts 35°
2026-05-08 17:45 -21.04858 -44.76560 39032 ft 472 kts 34°
2026-05-08 17:46 -20.99580 -44.72385 39038 ft 472 kts 32°
2026-05-08 17:46 -20.94201 -44.68376 39041 ft 471 kts 31°
2026-05-08 17:47 -20.88822 -44.64351 39043 ft 472 kts 32°
2026-05-08 17:47 -20.84379 -44.60963 39047 ft 472 kts 32°
2026-05-08 17:48 -20.80786 -44.58250 38719 ft 473 kts 28°
2026-05-08 17:48 -20.77834 -44.56696 37390 ft 475 kts 15°
2026-05-08 17:48 -20.74676 -44.55768 35840 ft 480 kts 10°
2026-05-08 17:48 -20.71411 -44.54915 34374 ft 485 kts 11°
2026-05-08 17:49 -20.68121 -44.54054 32822 ft 488 kts 11°
2026-05-08 17:49 -20.64822 -44.53179 31185 ft 491 kts 11°
2026-05-08 17:49 -20.61499 -44.52286 29394 ft 494 kts 11°
2026-05-08 17:49 -20.58156 -44.51379 27366 ft 497 kts 12°
2026-05-08 17:50 -20.54804 -44.50463 25360 ft 499 kts 13°
2026-05-08 17:50 -20.51442 -44.49546 23845 ft 492 kts 13°
2026-05-08 17:50 -20.48193 -44.48659 22554 ft 475 kts 13°
2026-05-08 17:50 -20.45034 -44.47799 21213 ft 461 kts 13°
2026-05-08 17:51 -20.41962 -44.46965 19899 ft 450 kts 13°
2026-05-08 17:51 -20.38958 -44.46154 18736 ft 442 kts 13°
2026-05-08 17:51 -20.36009 -44.45357 18341 ft 430 kts 13°
2026-05-08 17:51 -20.33160 -44.44585 18086 ft 415 kts 13°
2026-05-08 17:52 -20.30410 -44.43838 17829 ft 401 kts 13°
2026-05-08 17:52 -20.27753 -44.43115 17575 ft 388 kts 13°
2026-05-08 17:52 -20.22669 -44.41729 17071 ft 367 kts 13°
2026-05-08 17:53 -20.20221 -44.41062 16834 ft 356 kts 14°
2026-05-08 17:53 -20.17853 -44.40417 16539 ft 347 kts 14°
2026-05-08 17:53 -20.15515 -44.39781 16046 ft 345 kts 14°
2026-05-08 17:53 -20.13204 -44.39156 15588 ft 341 kts 14°
2026-05-08 17:54 -20.10923 -44.38543 15169 ft 336 kts 14°
2026-05-08 17:54 -20.08668 -44.37935 14740 ft 332 kts 14°
2026-05-08 17:54 -20.06441 -44.37331 14325 ft 328 kts 14°
2026-05-08 17:54 -20.04246 -44.36736 13921 ft 323 kts 14°
2026-05-08 17:55 -20.02083 -44.36151 13502 ft 318 kts 14°
2026-05-08 17:55 -19.99961 -44.35577 13117 ft 311 kts 14°
2026-05-08 17:55 -19.98071 -44.35065 12778 ft 305 kts 14°
2026-05-08 17:55 -19.96032 -44.34513 12412 ft 301 kts 14°
2026-05-08 17:56 -19.94017 -44.33966 12053 ft 298 kts 14°
2026-05-08 17:56 -19.92041 -44.33429 11698 ft 296 kts 14°
2026-05-08 17:56 -19.90069 -44.32895 11343 ft 294 kts 14°
2026-05-08 17:56 -19.88089 -44.32361 10992 ft 293 kts 14°
2026-05-08 17:57 -19.86127 -44.31829 10838 ft 291 kts 14°
2026-05-08 17:57 -19.84168 -44.31299 10689 ft 291 kts 14°
2026-05-08 17:57 -19.82306 -44.30519 10399 ft 287 kts 33°
2026-05-08 17:57 -19.80936 -44.29020 10050 ft 283 kts 53°
2026-05-08 17:58 -19.79865 -44.27275 9579 ft 281 kts 57°
2026-05-08 17:58 -19.78919 -44.25459 9080 ft 280 kts 59°
2026-05-08 17:58 -19.78002 -44.23636 8595 ft 279 kts 60°
2026-05-08 17:58 -19.77086 -44.21825 8106 ft 278 kts 60°
2026-05-08 17:59 -19.76168 -44.20026 7592 ft 276 kts 60°
2026-05-08 17:59 -19.75253 -44.18236 7111 ft 275 kts 60°
2026-05-08 17:59 -19.74345 -44.16460 6636 ft 273 kts 60°
2026-05-08 17:59 -19.73436 -44.14695 6226 ft 270 kts 60°
2026-05-08 18:00 -19.72528 -44.12935 5976 ft 272 kts 60°
2026-05-08 18:00 -19.70703 -44.09420 5482 ft 271 kts 60°
2026-05-08 18:00 -19.69796 -44.07677 5236 ft 269 kts 60°
2026-05-08 18:01 -19.68895 -44.05950 5057 ft 267 kts 60°
2026-05-08 18:01 -19.68025 -44.04254 4870 ft 256 kts 63°
2026-05-08 18:01 -19.67657 -44.02459 4615 ft 248 kts 92°
2026-05-08 18:01 -19.68190 -44.00760 4390 ft 243 kts 124°
2026-05-08 18:02 -19.69332 -43.99508 4253 ft 230 kts 137°
2026-05-08 18:02 -19.70122 -43.98790 4253 ft 220 kts 139°
2026-05-08 18:02 -19.71626 -43.97430 4276 ft 208 kts 132°
2026-05-08 18:02 -19.72253 -43.96194 4364 ft 179 kts 94°
2026-05-08 18:03 -19.71993 -43.95021 4315 ft 160 kts 53°
2026-05-08 18:03 -19.71301 -43.94125 4125 ft 156 kts 48°
2026-05-08 18:03 -19.70548 -43.93302 3910 ft 152 kts 38°
2026-05-08 18:03 -19.69649 -43.92753 3867 ft 149 kts 19°
2026-05-08 18:04 -19.68641 -43.92567 3906 ft 149 kts 358°
2026-05-08 18:04 -19.67683 -43.92940 3640 ft 150 kts 324°
2026-05-08 18:04 -19.66881 -43.93644 3407 ft 150 kts 323°
2026-05-08 18:04 -19.66094 -43.94362 3231 ft 149 kts 321°
2026-05-08 18:05 -19.65314 -43.95085 3037 ft 149 kts 321°
2026-05-08 18:05 -19.64533 -43.95802 2861 ft 147 kts 320°
2026-05-08 18:05 -19.63857 -43.96427 2851 ft 106 kts 319°
2026-05-08 18:05 -19.63428 -43.96822 2851 ft 57 kts 319°
2026-05-08 18:06 -19.63191 -43.97042 2851 ft 35 kts 319°
2026-05-08 18:06 -19.63028 -43.97193 2851 ft 22 kts 319°
2026-05-08 18:06 -19.62926 -43.97207 2851 ft 14 kts 37°
2026-05-08 18:06 -19.62860 -43.97130 2852 ft 15 kts 49°
2026-05-08 18:07 -19.62794 -43.97047 2851 ft 11 kts 57°
2026-05-08 18:07 -19.62785 -43.96989 2851 ft 7 kts 93°
2026-05-08 18:07 -19.62804 -43.96941 2851 ft 8 kts 133°
2026-05-08 18:07 -19.62859 -43.96891 2851 ft 11 kts 140°
2026-05-08 18:08 -19.62931 -43.96826 2851 ft 16 kts 139°
2026-05-08 18:08 -19.63029 -43.96737 2851 ft 21 kts 139°
2026-05-08 18:08 -19.63145 -43.96632 2851 ft 23 kts 141°
2026-05-08 18:08 -19.63228 -43.96556 2851 ft 11 kts 138°
2026-05-08 18:09 -19.63262 -43.96525 2851 ft 5 kts 139°
2026-05-08 18:09 -19.63270 -43.96487 2851 ft 5 kts 64°
2026-05-08 18:09 -19.63253 -43.96452 2851 ft 1 kts 62°